owner,sensor,date,latitude,longitude,air_pressure(mBar),qcFlag 
COMPS,ioos:station:USF.COMPS:C10:1,2014-11-01T00:05:00Z,27.1690,-82.9260,1010.53,1111122 
COMPS,ioos:station:USF.COMPS:C10:1,2014-11-01T00:35:00Z,27.1690,-82.9260,1010.92,1111122 
COMPS,ioos:station:USF.COMPS:C10:1,2014-11-01T01:05:00Z,27.1690,-82.9260,1011.27,1111122 
COMPS,ioos:station:USF.COMPS:C10:1,2014-11-01T01:35:00Z,27.1690,-82.9260,1011.5,1111122 
COMPS,ioos:station:USF.COMPS:C10:1,2014-11-01T02:05:00Z,27.1690,-82.9260,1011.72,1111122 
COMPS,ioos:station:USF.COMPS:C10:1,2014-11-01T02:35:00Z,27.1690,-82.9260,1011.92,1111122 
COMPS,ioos:station:USF.COMPS:C10:1,2014-11-01T04:05:00Z,27.1690,-82.9260,1011.98,1111122 
COMPS,ioos:station:USF.COMPS:C10:1,2014-11-01T04:35:00Z,27.1690,-82.9260,1011.89,1111122 
COMPS,ioos:station:USF.COMPS:C10:1,2014-11-01T05:05:00Z,27.1690,-82.9260,1011.85,1111122 
COMPS,ioos:station:USF.COMPS:C10:1,2014-11-01T05:35:00Z,27.1690,-82.9260,1011.64,1111122 
COMPS,ioos:station:USF.COMPS:C10:1,2014-11-01T06:05:00Z,27.1690,-82.9260,1011.49,1111122 
COMPS,ioos:station:USF.COMPS:C10:1,2014-11-01T06:35:00Z,27.1690,-82.9260,1011.4,1111122 
COMPS,ioos:station:USF.COMPS:C10:1,2014-11-01T07:05:00Z,27.1690,-82.9260,1011.04,1111122 
COMPS,ioos:station:USF.COMPS:C10:1,2014-11-01T07:35:00Z,27.1690,-82.9260,1010.9,1111122 
COMPS,ioos:station:USF.COMPS:C10:1,2014-11-01T08:05:00Z,27.1690,-82.9260,1010.83,1111122 
COMPS,ioos:station:USF.COMPS:C10:1,2014-11-01T08:35:00Z,27.1690,-82.9260,1010.85,1111122 
COMPS,ioos:station:USF.COMPS:C10:1,2014-11-01T09:05:00Z,27.1690,-82.9260,1011.02,1111122 
COMPS,ioos:station:USF.COMPS:C10:1,2014-11-01T09:35:00Z,27.1690,-82.9260,1010.99,1111122 
COMPS,ioos:station:USF.COMPS:C10:1,2014-11-01T10:05:00Z,27.1690,-82.9260,1011.11,1111122 
COMPS,ioos:station:USF.COMPS:C10:1,2014-11-01T10:35:00Z,27.1690,-82.9260,1011.7,1111122 
COMPS,ioos:station:USF.COMPS:C10:1,2014-11-01T11:05:00Z,27.1690,-82.9260,1012.41,1111122 
COMPS,ioos:station:USF.COMPS:C10:1,2014-11-01T11:35:00Z,27.1690,-82.9260,1012.92,1111122 
COMPS,ioos:station:USF.COMPS:C10:1,2014-11-01T12:05:00Z,27.1690,-82.9260,1013.52,1111122 
COMPS,ioos:station:USF.COMPS:C10:1,2014-11-01T12:35:00Z,27.1690,-82.9260,1014.15,1111122 
COMPS,ioos:station:USF.COMPS:C10:1,2014-11-01T13:05:00Z,27.1690,-82.9260,1014.44,1111122 
COMPS,ioos:station:USF.COMPS:C10:1,2014-11-01T13:35:00Z,27.1690,-82.9260,1014.77,1111122 
COMPS,ioos:station:USF.COMPS:C10:1,2014-11-01T14:05:00Z,27.1690,-82.9260,1015.13,1111122 
COMPS,ioos:station:USF.COMPS:C10:1,2014-11-01T14:35:00Z,27.1690,-82.9260,1015.5,1111122 
COMPS,ioos:station:USF.COMPS:C10:1,2014-11-01T16:05:00Z,27.1690,-82.9260,1016.89,1111122 
COMPS,ioos:station:USF.COMPS:C10:1,2014-11-01T16:35:00Z,27.1690,-82.9260,1016.87,1111122 
COMPS,ioos:station:USF.COMPS:C10:1,2014-11-01T17:05:00Z,27.1690,-82.9260,1016.48,1111122 
COMPS,ioos:station:USF.COMPS:C10:1,2014-11-01T17:35:00Z,27.1690,-82.9260,1016.37,1111122 
COMPS,ioos:station:USF.COMPS:C10:1,2014-11-01T18:05:00Z,27.1690,-82.9260,1016.34,1111122 
COMPS,ioos:station:USF.COMPS:C10:1,2014-11-01T18:35:00Z,27.1690,-82.9260,1015.86,1111122 
COMPS,ioos:station:USF.COMPS:C10:1,2014-11-01T19:05:00Z,27.1690,-82.9260,1015.61,1111122 
COMPS,ioos:station:USF.COMPS:C10:1,2014-11-01T19:35:00Z,27.1690,-82.9260,1015.46,1111122 
COMPS,ioos:station:USF.COMPS:C10:1,2014-11-01T20:05:00Z,27.1690,-82.9260,1015.3,1111122 
COMPS,ioos:station:USF.COMPS:C10:1,2014-11-01T20:35:00Z,27.1690,-82.9260,1015.41,1111122 
COMPS,ioos:station:USF.COMPS:C10:1,2014-11-01T21:05:00Z,27.1690,-82.9260,1015.58,1111122 
COMPS,ioos:station:USF.COMPS:C10:1,2014-11-01T21:35:00Z,27.1690,-82.9260,1015.76,1111122 
COMPS,ioos:station:USF.COMPS:C10:1,2014-11-01T23:05:00Z,27.1690,-82.9260,1016.62,1111122 
COMPS,ioos:station:USF.COMPS:C10:1,2014-11-01T23:35:00Z,27.1690,-82.9260,1016.99,1111122 
COMPS,ioos:station:USF.COMPS:C10:1,2014-11-02T00:05:00Z,27.1690,-82.9260,1017.38,1111122 
COMPS,ioos:station:USF.COMPS:C10:1,2014-11-02T00:35:00Z,27.1690,-82.9260,1017.82,1111122 
COMPS,ioos:station:USF.COMPS:C10:1,2014-11-02T02:05:00Z,27.1690,-82.9260,1019.01,1111122 
COMPS,ioos:station:USF.COMPS:C10:1,2014-11-02T02:35:00Z,27.1690,-82.9260,1019.34,1111122 
COMPS,ioos:station:USF.COMPS:C10:1,2014-11-02T03:05:00Z,27.1690,-82.9260,1019.68,1111122 
COMPS,ioos:station:USF.COMPS:C10:1,2014-11-02T03:35:00Z,27.1690,-82.9260,1019.88,1111122 
COMPS,ioos:station:USF.COMPS:C10:1,2014-11-02T04:05:00Z,27.1690,-82.9260,1020.06,1111122 
COMPS,ioos:station:USF.COMPS:C10:1,2014-11-02T04:35:00Z,27.1690,-82.9260,1020.46,1111122 
COMPS,ioos:station:USF.COMPS:C10:1,2014-11-02T05:05:00Z,27.1690,-82.9260,1020.63,1111122 
COMPS,ioos:station:USF.COMPS:C10:1,2014-11-02T05:35:00Z,27.1690,-82.9260,1020.69,1111122 
COMPS,ioos:station:USF.COMPS:C10:1,2014-11-02T06:05:00Z,27.1690,-82.9260,1020.88,1111122 
COMPS,ioos:station:USF.COMPS:C10:1,2014-11-02T06:35:00Z,27.1690,-82.9260,1021.01,1111122 
COMPS,ioos:station:USF.COMPS:C10:1,2014-11-02T07:05:00Z,27.1690,-82.9260,1020.91,1111122 
COMPS,ioos:station:USF.COMPS:C10:1,2014-11-02T07:35:00Z,27.1690,-82.9260,1021.01,1111122 
COMPS,ioos:station:USF.COMPS:C10:1,2014-11-02T08:05:00Z,27.1690,-82.9260,1020.96,1111122 
COMPS,ioos:station:USF.COMPS:C10:1,2014-11-02T08:35:00Z,27.1690,-82.9260,1020.96,1111122 
COMPS,ioos:station:USF.COMPS:C10:1,2014-11-02T09:05:00Z,27.1690,-82.9260,1020.86,1111122 
COMPS,ioos:station:USF.COMPS:C10:1,2014-11-02T09:35:00Z,27.1690,-82.9260,1020.99,1111122 
COMPS,ioos:station:USF.COMPS:C10:1,2014-11-02T10:05:00Z,27.1690,-82.9260,1021.17,1111122 
COMPS,ioos:station:USF.COMPS:C10:1,2014-11-02T10:35:00Z,27.1690,-82.9260,1021.23,1111122 
COMPS,ioos:station:USF.COMPS:C10:1,2014-11-02T11:05:00Z,27.1690,-82.9260,1021.7,1111122 
COMPS,ioos:station:USF.COMPS:C10:1,2014-11-02T11:35:00Z,27.1690,-82.9260,1021.97,1111122 
COMPS,ioos:station:USF.COMPS:C10:1,2014-11-02T12:05:00Z,27.1690,-82.9260,1022.53,1111122 
COMPS,ioos:station:USF.COMPS:C10:1,2014-11-02T12:35:00Z,27.1690,-82.9260,1023.03,1111122 
COMPS,ioos:station:USF.COMPS:C10:1,2014-11-02T13:05:00Z,27.1690,-82.9260,1023.67,1111122 
COMPS,ioos:station:USF.COMPS:C10:1,2014-11-02T13:35:00Z,27.1690,-82.9260,1023.95,1111122 
COMPS,ioos:station:USF.COMPS:C10:1,2014-11-02T14:05:00Z,27.1690,-82.9260,1024.39,1111122 
COMPS,ioos:station:USF.COMPS:C10:1,2014-11-02T14:35:00Z,27.1690,-82.9260,1024.47,1111122 
COMPS,ioos:station:USF.COMPS:C10:1,2014-11-02T15:05:00Z,27.1690,-82.9260,1024.44,1111122 
COMPS,ioos:station:USF.COMPS:C10:1,2014-11-02T15:35:00Z,27.1690,-82.9260,1024.65,1111122 
COMPS,ioos:station:USF.COMPS:C10:1,2014-11-02T16:05:00Z,27.1690,-82.9260,1024.33,1111122 
COMPS,ioos:station:USF.COMPS:C10:1,2014-11-02T16:35:00Z,27.1690,-82.9260,1024.13,1111122 
COMPS,ioos:station:USF.COMPS:C10:1,2014-11-02T17:05:00Z,27.1690,-82.9260,1023.99,1111122 
COMPS,ioos:station:USF.COMPS:C10:1,2014-11-02T17:35:00Z,27.1690,-82.9260,1023.41,1111122 
COMPS,ioos:station:USF.COMPS:C10:1,2014-11-02T18:05:00Z,27.1690,-82.9260,1023.0,1111122 
COMPS,ioos:station:USF.COMPS:C10:1,2014-11-02T18:35:00Z,27.1690,-82.9260,1022.38,1111122 
COMPS,ioos:station:USF.COMPS:C10:1,2014-11-02T20:05:00Z,27.1690,-82.9260,1021.91,1111122 
COMPS,ioos:station:USF.COMPS:C10:1,2014-11-02T20:35:00Z,27.1690,-82.9260,1021.94,1111122 
COMPS,ioos:station:USF.COMPS:C10:1,2014-11-02T22:05:00Z,27.1690,-82.9260,1022.17,1111122 
COMPS,ioos:station:USF.COMPS:C10:1,2014-11-02T22:35:00Z,27.1690,-82.9260,1022.36,1111122 
COMPS,ioos:station:USF.COMPS:C10:1,2014-11-02T23:05:00Z,27.1690,-82.9260,1022.34,1111122 
COMPS,ioos:station:USF.COMPS:C10:1,2014-11-02T23:35:00Z,27.1690,-82.9260,1022.44,1111122 
COMPS,ioos:station:USF.COMPS:C10:1,2014-11-03T00:05:00Z,27.1690,-82.9260,1022.51,1111122 
COMPS,ioos:station:USF.COMPS:C10:1,2014-11-03T00:35:00Z,27.1690,-82.9260,1022.9,1111122 
COMPS,ioos:station:USF.COMPS:C10:1,2014-11-03T02:05:00Z,27.1690,-82.9260,1023.72,1111122 
COMPS,ioos:station:USF.COMPS:C10:1,2014-11-03T02:35:00Z,27.1690,-82.9260,1023.73,1111122 
COMPS,ioos:station:USF.COMPS:C10:1,2014-11-03T03:05:00Z,27.1690,-82.9260,1023.97,1111122 
COMPS,ioos:station:USF.COMPS:C10:1,2014-11-03T03:35:00Z,27.1690,-82.9260,1024.18,1111122 
COMPS,ioos:station:USF.COMPS:C10:1,2014-11-03T04:05:00Z,27.1690,-82.9260,1024.14,1111122 
COMPS,ioos:station:USF.COMPS:C10:1,2014-11-03T04:35:00Z,27.1690,-82.9260,1024.04,1111122 
COMPS,ioos:station:USF.COMPS:C10:1,2014-11-03T05:05:00Z,27.1690,-82.9260,1024.11,1111122 
COMPS,ioos:station:USF.COMPS:C10:1,2014-11-03T05:35:00Z,27.1690,-82.9260,1023.98,1111122 
COMPS,ioos:station:USF.COMPS:C10:1,2014-11-03T06:05:00Z,27.1690,-82.9260,1023.87,1111122 
COMPS,ioos:station:USF.COMPS:C10:1,2014-11-03T06:35:00Z,27.1690,-82.9260,1023.74,1111122 
COMPS,ioos:station:USF.COMPS:C10:1,2014-11-03T07:05:00Z,27.1690,-82.9260,1023.6,1111122 
COMPS,ioos:station:USF.COMPS:C10:1,2014-11-03T07:35:00Z,27.1690,-82.9260,1023.46,1111122 
COMPS,ioos:station:USF.COMPS:C10:1,2014-11-03T08:05:00Z,27.1690,-82.9260,1023.57,1111122 
COMPS,ioos:station:USF.COMPS:C10:1,2014-11-03T08:35:00Z,27.1690,-82.9260,1023.8,1111122 
COMPS,ioos:station:USF.COMPS:C10:1,2014-11-03T09:05:00Z,27.1690,-82.9260,1023.72,1111122 
COMPS,ioos:station:USF.COMPS:C10:1,2014-11-03T09:35:00Z,27.1690,-82.9260,1023.73,1111122 
COMPS,ioos:station:USF.COMPS:C10:1,2014-11-03T10:05:00Z,27.1690,-82.9260,1024.02,1111122 
COMPS,ioos:station:USF.COMPS:C10:1,2014-11-03T10:35:00Z,27.1690,-82.9260,1024.28,1111122 
COMPS,ioos:station:USF.COMPS:C10:1,2014-11-03T11:05:00Z,27.1690,-82.9260,1024.63,1111122 
COMPS,ioos:station:USF.COMPS:C10:1,2014-11-03T11:35:00Z,27.1690,-82.9260,1024.86,1111122 
COMPS,ioos:station:USF.COMPS:C10:1,2014-11-03T12:05:00Z,27.1690,-82.9260,1024.77,1111122 
COMPS,ioos:station:USF.COMPS:C10:1,2014-11-03T12:35:00Z,27.1690,-82.9260,1025.19,1111122 
COMPS,ioos:station:USF.COMPS:C10:1,2014-11-03T13:05:00Z,27.1690,-82.9260,1025.25,1111122 
COMPS,ioos:station:USF.COMPS:C10:1,2014-11-03T13:35:00Z,27.1690,-82.9260,1025.54,1111122 
COMPS,ioos:station:USF.COMPS:C10:1,2014-11-03T14:05:00Z,27.1690,-82.9260,1025.46,1111122 
COMPS,ioos:station:USF.COMPS:C10:1,2014-11-03T14:35:00Z,27.1690,-82.9260,1025.56,1111122 
COMPS,ioos:station:USF.COMPS:C10:1,2014-11-03T15:05:00Z,27.1690,-82.9260,1025.75,1111122 
COMPS,ioos:station:USF.COMPS:C10:1,2014-11-03T15:35:00Z,27.1690,-82.9260,1025.98,1111122 
COMPS,ioos:station:USF.COMPS:C10:1,2014-11-03T16:05:00Z,27.1690,-82.9260,1025.88,1111122 
COMPS,ioos:station:USF.COMPS:C10:1,2014-11-03T16:35:00Z,27.1690,-82.9260,1025.74,1111122 
COMPS,ioos:station:USF.COMPS:C10:1,2014-11-03T17:05:00Z,27.1690,-82.9260,1025.52,1111122 
COMPS,ioos:station:USF.COMPS:C10:1,2014-11-03T17:35:00Z,27.1690,-82.9260,1025.14,1111122 
COMPS,ioos:station:USF.COMPS:C10:1,2014-11-03T18:05:00Z,27.1690,-82.9260,1024.66,1111122 
COMPS,ioos:station:USF.COMPS:C10:1,2014-11-03T18:35:00Z,27.1690,-82.9260,1024.26,1111122 
COMPS,ioos:station:USF.COMPS:C10:1,2014-11-03T19:05:00Z,27.1690,-82.9260,1023.88,1111122 
COMPS,ioos:station:USF.COMPS:C10:1,2014-11-03T19:35:00Z,27.1690,-82.9260,1023.74,1111122 
COMPS,ioos:station:USF.COMPS:C10:1,2014-11-03T20:05:00Z,27.1690,-82.9260,1023.51,1111122 
COMPS,ioos:station:USF.COMPS:C10:1,2014-11-03T20:35:00Z,27.1690,-82.9260,1023.47,1111122 
COMPS,ioos:station:USF.COMPS:C10:1,2014-11-03T21:05:00Z,27.1690,-82.9260,1023.11,1111122 
COMPS,ioos:station:USF.COMPS:C10:1,2014-11-03T21:35:00Z,27.1690,-82.9260,1023.03,1111122 
COMPS,ioos:station:USF.COMPS:C10:1,2014-11-03T22:05:00Z,27.1690,-82.9260,1022.89,1111122 
COMPS,ioos:station:USF.COMPS:C10:1,2014-11-03T22:35:00Z,27.1690,-82.9260,1022.96,1111122 
COMPS,ioos:station:USF.COMPS:C10:1,2014-11-03T23:05:00Z,27.1690,-82.9260,1023.14,1111122 
COMPS,ioos:station:USF.COMPS:C10:1,2014-11-03T23:35:00Z,27.1690,-82.9260,1023.31,1111122 
COMPS,ioos:station:USF.COMPS:C10:1,2014-11-04T00:05:00Z,27.1690,-82.9260,1023.64,1111122 
COMPS,ioos:station:USF.COMPS:C10:1,2014-11-04T00:35:00Z,27.1690,-82.9260,1023.73,1111122 
COMPS,ioos:station:USF.COMPS:C10:1,2014-11-04T01:05:00Z,27.1690,-82.9260,1023.99,1111122 
COMPS,ioos:station:USF.COMPS:C10:1,2014-11-04T01:35:00Z,27.1690,-82.9260,1024.25,1111122 
COMPS,ioos:station:USF.COMPS:C10:1,2014-11-04T02:05:00Z,27.1690,-82.9260,1024.38,1111122 
COMPS,ioos:station:USF.COMPS:C10:1,2014-11-04T02:35:00Z,27.1690,-82.9260,1024.55,1111122 
COMPS,ioos:station:USF.COMPS:C10:1,2014-11-04T03:05:00Z,27.1690,-82.9260,1024.39,1111122 
COMPS,ioos:station:USF.COMPS:C10:1,2014-11-04T03:35:00Z,27.1690,-82.9260,1024.46,1111122 
COMPS,ioos:station:USF.COMPS:C10:1,2014-11-04T04:05:00Z,27.1690,-82.9260,1024.21,1111122 
COMPS,ioos:station:USF.COMPS:C10:1,2014-11-04T04:35:00Z,27.1690,-82.9260,1024.01,1111122 
COMPS,ioos:station:USF.COMPS:C10:1,2014-11-04T05:05:00Z,27.1690,-82.9260,1023.93,1111122 
COMPS,ioos:station:USF.COMPS:C10:1,2014-11-04T05:35:00Z,27.1690,-82.9260,1023.78,1111122 
COMPS,ioos:station:USF.COMPS:C10:1,2014-11-04T06:05:00Z,27.1690,-82.9260,1023.54,1111122 
COMPS,ioos:station:USF.COMPS:C10:1,2014-11-04T06:35:00Z,27.1690,-82.9260,1023.26,1111122 
COMPS,ioos:station:USF.COMPS:C10:1,2014-11-04T07:05:00Z,27.1690,-82.9260,1023.01,1111122 
COMPS,ioos:station:USF.COMPS:C10:1,2014-11-04T07:35:00Z,27.1690,-82.9260,1022.83,1111122 
COMPS,ioos:station:USF.COMPS:C10:1,2014-11-04T08:05:00Z,27.1690,-82.9260,1022.86,1111122 
COMPS,ioos:station:USF.COMPS:C10:1,2014-11-04T08:35:00Z,27.1690,-82.9260,1022.74,1111122 
COMPS,ioos:station:USF.COMPS:C10:1,2014-11-04T09:05:00Z,27.1690,-82.9260,1022.58,1111122 
COMPS,ioos:station:USF.COMPS:C10:1,2014-11-04T09:35:00Z,27.1690,-82.9260,1022.7,1111122 
COMPS,ioos:station:USF.COMPS:C10:1,2014-11-04T10:05:00Z,27.1690,-82.9260,1022.83,1111122 
COMPS,ioos:station:USF.COMPS:C10:1,2014-11-04T10:35:00Z,27.1690,-82.9260,1023.09,1111122 
COMPS,ioos:station:USF.COMPS:C10:1,2014-11-04T11:05:00Z,27.1690,-82.9260,1023.0,1111122 
COMPS,ioos:station:USF.COMPS:C10:1,2014-11-04T11:35:00Z,27.1690,-82.9260,1023.28,1111122 
COMPS,ioos:station:USF.COMPS:C10:1,2014-11-04T12:05:00Z,27.1690,-82.9260,1023.51,1111122 
COMPS,ioos:station:USF.COMPS:C10:1,2014-11-04T12:35:00Z,27.1690,-82.9260,1023.41,1111122 
COMPS,ioos:station:USF.COMPS:C10:1,2014-11-04T13:05:00Z,27.1690,-82.9260,1023.77,1111122 
COMPS,ioos:station:USF.COMPS:C10:1,2014-11-04T13:35:00Z,27.1690,-82.9260,1023.91,1111122 
COMPS,ioos:station:USF.COMPS:C10:1,2014-11-04T14:05:00Z,27.1690,-82.9260,1024.0,1111122 
COMPS,ioos:station:USF.COMPS:C10:1,2014-11-04T14:35:00Z,27.1690,-82.9260,1023.97,1111122 
COMPS,ioos:station:USF.COMPS:C10:1,2014-11-04T15:05:00Z,27.1690,-82.9260,1023.97,1111122 
COMPS,ioos:station:USF.COMPS:C10:1,2014-11-04T15:35:00Z,27.1690,-82.9260,1023.78,1111122 
COMPS,ioos:station:USF.COMPS:C10:1,2014-11-04T16:05:00Z,27.1690,-82.9260,1023.5,1111122 
COMPS,ioos:station:USF.COMPS:C10:1,2014-11-04T16:35:00Z,27.1690,-82.9260,1022.91,1111122 
COMPS,ioos:station:USF.COMPS:C10:1,2014-11-04T17:05:00Z,27.1690,-82.9260,1022.58,1111122 
COMPS,ioos:station:USF.COMPS:C10:1,2014-11-04T17:35:00Z,27.1690,-82.9260,1022.14,1111122 
COMPS,ioos:station:USF.COMPS:C10:1,2014-11-04T18:05:00Z,27.1690,-82.9260,1021.48,1111122 
COMPS,ioos:station:USF.COMPS:C10:1,2014-11-04T18:35:00Z,27.1690,-82.9260,1021.16,1111122 
COMPS,ioos:station:USF.COMPS:C10:1,2014-11-04T19:05:00Z,27.1690,-82.9260,1020.97,1111122 
COMPS,ioos:station:USF.COMPS:C10:1,2014-11-04T19:35:00Z,27.1690,-82.9260,1020.68,1111122 
COMPS,ioos:station:USF.COMPS:C10:1,2014-11-04T20:05:00Z,27.1690,-82.9260,1020.34,1111122 
COMPS,ioos:station:USF.COMPS:C10:1,2014-11-04T20:35:00Z,27.1690,-82.9260,1019.99,1111122 
COMPS,ioos:station:USF.COMPS:C10:1,2014-11-04T21:05:00Z,27.1690,-82.9260,1019.91,1111122 
COMPS,ioos:station:USF.COMPS:C10:1,2014-11-04T21:35:00Z,27.1690,-82.9260,1019.72,1111122 
COMPS,ioos:station:USF.COMPS:C10:1,2014-11-04T22:05:00Z,27.1690,-82.9260,1019.58,1111122 
COMPS,ioos:station:USF.COMPS:C10:1,2014-11-04T22:35:00Z,27.1690,-82.9260,1019.32,1111122 
COMPS,ioos:station:USF.COMPS:C10:1,2014-11-04T23:05:00Z,27.1690,-82.9260,1019.36,1111122 
COMPS,ioos:station:USF.COMPS:C10:1,2014-11-04T23:35:00Z,27.1690,-82.9260,1019.71,1111122 
COMPS,ioos:station:USF.COMPS:C10:1,2014-11-05T00:05:00Z,27.1690,-82.9260,1019.99,1111122 
COMPS,ioos:station:USF.COMPS:C10:1,2014-11-05T00:35:00Z,27.1690,-82.9260,1020.18,1111122 
COMPS,ioos:station:USF.COMPS:C10:1,2014-11-05T01:05:00Z,27.1690,-82.9260,1020.41,1111122 
COMPS,ioos:station:USF.COMPS:C10:1,2014-11-05T01:35:00Z,27.1690,-82.9260,1020.9,1111122 
COMPS,ioos:station:USF.COMPS:C10:1,2014-11-05T02:05:00Z,27.1690,-82.9260,1021.12,1111122 
COMPS,ioos:station:USF.COMPS:C10:1,2014-11-05T02:35:00Z,27.1690,-82.9260,1021.25,1111122 
COMPS,ioos:station:USF.COMPS:C10:1,2014-11-05T03:05:00Z,27.1690,-82.9260,1021.24,1111122 
COMPS,ioos:station:USF.COMPS:C10:1,2014-11-05T03:35:00Z,27.1690,-82.9260,1021.23,1111122 
COMPS,ioos:station:USF.COMPS:C10:1,2014-11-05T04:05:00Z,27.1690,-82.9260,1021.16,1111122 
COMPS,ioos:station:USF.COMPS:C10:1,2014-11-05T04:35:00Z,27.1690,-82.9260,1021.22,1111122 
COMPS,ioos:station:USF.COMPS:C10:1,2014-11-05T05:05:00Z,27.1690,-82.9260,1021.08,1111122 
COMPS,ioos:station:USF.COMPS:C10:1,2014-11-05T05:35:00Z,27.1690,-82.9260,1021.04,1111122 
COMPS,ioos:station:USF.COMPS:C10:1,2014-11-05T06:05:00Z,27.1690,-82.9260,1020.92,1111122 
COMPS,ioos:station:USF.COMPS:C10:1,2014-11-05T06:35:00Z,27.1690,-82.9260,1020.81,1111122 
COMPS,ioos:station:USF.COMPS:C10:1,2014-11-05T07:05:00Z,27.1690,-82.9260,1020.42,1111122 
COMPS,ioos:station:USF.COMPS:C10:1,2014-11-05T07:35:00Z,27.1690,-82.9260,1020.27,1111122 
COMPS,ioos:station:USF.COMPS:C10:1,2014-11-05T08:05:00Z,27.1690,-82.9260,1020.28,1111122 
COMPS,ioos:station:USF.COMPS:C10:1,2014-11-05T08:35:00Z,27.1690,-82.9260,1020.26,1111122 
COMPS,ioos:station:USF.COMPS:C10:1,2014-11-05T09:05:00Z,27.1690,-82.9260,1020.28,1111122 
COMPS,ioos:station:USF.COMPS:C10:1,2014-11-05T09:35:00Z,27.1690,-82.9260,1020.13,1111122 
COMPS,ioos:station:USF.COMPS:C10:1,2014-11-05T10:05:00Z,27.1690,-82.9260,1020.61,1111122 
COMPS,ioos:station:USF.COMPS:C10:1,2014-11-05T10:35:00Z,27.1690,-82.9260,1020.54,1111122 
COMPS,ioos:station:USF.COMPS:C10:1,2014-11-05T11:05:00Z,27.1690,-82.9260,1020.62,1111122 
COMPS,ioos:station:USF.COMPS:C10:1,2014-11-05T11:35:00Z,27.1690,-82.9260,1021.08,1111122 
COMPS,ioos:station:USF.COMPS:C10:1,2014-11-05T12:05:00Z,27.1690,-82.9260,1021.08,1111122 
COMPS,ioos:station:USF.COMPS:C10:1,2014-11-05T12:35:00Z,27.1690,-82.9260,1021.17,1111122 
COMPS,ioos:station:USF.COMPS:C10:1,2014-11-05T13:05:00Z,27.1690,-82.9260,1021.48,1111122 
COMPS,ioos:station:USF.COMPS:C10:1,2014-11-05T13:35:00Z,27.1690,-82.9260,1021.47,1111122 
COMPS,ioos:station:USF.COMPS:C10:1,2014-11-05T14:05:00Z,27.1690,-82.9260,1021.76,1111122 
COMPS,ioos:station:USF.COMPS:C10:1,2014-11-05T14:35:00Z,27.1690,-82.9260,1021.67,1111122 
COMPS,ioos:station:USF.COMPS:C10:1,2014-11-05T15:05:00Z,27.1690,-82.9260,1021.6,1111122 
COMPS,ioos:station:USF.COMPS:C10:1,2014-11-05T15:35:00Z,27.1690,-82.9260,1021.46,1111122 
COMPS,ioos:station:USF.COMPS:C10:1,2014-11-05T16:05:00Z,27.1690,-82.9260,1021.17,1111122 
COMPS,ioos:station:USF.COMPS:C10:1,2014-11-05T16:35:00Z,27.1690,-82.9260,1020.78,1111122 
COMPS,ioos:station:USF.COMPS:C10:1,2014-11-05T17:05:00Z,27.1690,-82.9260,1020.28,1111122 
COMPS,ioos:station:USF.COMPS:C10:1,2014-11-05T17:35:00Z,27.1690,-82.9260,1020.01,1111122 
COMPS,ioos:station:USF.COMPS:C10:1,2014-11-05T18:05:00Z,27.1690,-82.9260,1019.58,1111122 
COMPS,ioos:station:USF.COMPS:C10:1,2014-11-05T18:35:00Z,27.1690,-82.9260,1019.14,1111122 
COMPS,ioos:station:USF.COMPS:C10:1,2014-11-05T19:05:00Z,27.1690,-82.9260,1018.56,1111122 
COMPS,ioos:station:USF.COMPS:C10:1,2014-11-05T19:35:00Z,27.1690,-82.9260,1018.24,1111122 
COMPS,ioos:station:USF.COMPS:C10:1,2014-11-05T20:05:00Z,27.1690,-82.9260,1018.1,1111122 
COMPS,ioos:station:USF.COMPS:C10:1,2014-11-05T20:35:00Z,27.1690,-82.9260,1017.96,1111122 
COMPS,ioos:station:USF.COMPS:C10:1,2014-11-05T21:05:00Z,27.1690,-82.9260,1017.77,1111122 
COMPS,ioos:station:USF.COMPS:C10:1,2014-11-05T21:35:00Z,27.1690,-82.9260,1017.4,1111122 
COMPS,ioos:station:USF.COMPS:C10:1,2014-11-05T22:05:00Z,27.1690,-82.9260,1017.4,1111122 
COMPS,ioos:station:USF.COMPS:C10:1,2014-11-05T22:35:00Z,27.1690,-82.9260,1017.49,1111122 
COMPS,ioos:station:USF.COMPS:C10:1,2014-11-05T23:05:00Z,27.1690,-82.9260,1017.72,1111122 
COMPS,ioos:station:USF.COMPS:C10:1,2014-11-05T23:35:00Z,27.1690,-82.9260,1017.87,1111122 
COMPS,ioos:station:USF.COMPS:C10:1,2014-11-06T00:05:00Z,27.1690,-82.9260,1018.3,1111122 
COMPS,ioos:station:USF.COMPS:C10:1,2014-11-06T00:35:00Z,27.1690,-82.9260,1018.57,1111122 
COMPS,ioos:station:USF.COMPS:C10:1,2014-11-06T01:05:00Z,27.1690,-82.9260,1018.86,1111122 
COMPS,ioos:station:USF.COMPS:C10:1,2014-11-06T01:35:00Z,27.1690,-82.9260,1019.05,1111122 
COMPS,ioos:station:USF.COMPS:C10:1,2014-11-06T02:05:00Z,27.1690,-82.9260,1019.53,1111122 
COMPS,ioos:station:USF.COMPS:C10:1,2014-11-06T02:35:00Z,27.1690,-82.9260,1019.67,1111122 
COMPS,ioos:station:USF.COMPS:C10:1,2014-11-06T03:05:00Z,27.1690,-82.9260,1019.64,1111122 
COMPS,ioos:station:USF.COMPS:C10:1,2014-11-06T03:35:00Z,27.1690,-82.9260,1019.55,1111122 
COMPS,ioos:station:USF.COMPS:C10:1,2014-11-06T04:05:00Z,27.1690,-82.9260,1019.7,1111122 
COMPS,ioos:station:USF.COMPS:C10:1,2014-11-06T04:35:00Z,27.1690,-82.9260,1019.31,1111122 
COMPS,ioos:station:USF.COMPS:C10:1,2014-11-06T05:05:00Z,27.1690,-82.9260,1019.07,1111122 
COMPS,ioos:station:USF.COMPS:C10:1,2014-11-06T05:35:00Z,27.1690,-82.9260,1018.8,1111122 
COMPS,ioos:station:USF.COMPS:C10:1,2014-11-06T06:05:00Z,27.1690,-82.9260,1018.64,1111122 
COMPS,ioos:station:USF.COMPS:C10:1,2014-11-06T06:35:00Z,27.1690,-82.9260,1018.3,1111122 
COMPS,ioos:station:USF.COMPS:C10:1,2014-11-06T07:05:00Z,27.1690,-82.9260,1018.0,1111122 
COMPS,ioos:station:USF.COMPS:C10:1,2014-11-06T07:35:00Z,27.1690,-82.9260,1017.82,1111122 
COMPS,ioos:station:USF.COMPS:C10:1,2014-11-06T08:05:00Z,27.1690,-82.9260,1017.68,1111122 
COMPS,ioos:station:USF.COMPS:C10:1,2014-11-06T08:35:00Z,27.1690,-82.9260,1017.65,1111122 
COMPS,ioos:station:USF.COMPS:C10:1,2014-11-06T09:05:00Z,27.1690,-82.9260,1017.34,1111122 
COMPS,ioos:station:USF.COMPS:C10:1,2014-11-06T09:35:00Z,27.1690,-82.9260,1017.41,1111122 
COMPS,ioos:station:USF.COMPS:C10:1,2014-11-06T10:05:00Z,27.1690,-82.9260,1017.58,1111122 
COMPS,ioos:station:USF.COMPS:C10:1,2014-11-06T10:35:00Z,27.1690,-82.9260,1017.73,1111122 
COMPS,ioos:station:USF.COMPS:C10:1,2014-11-06T11:05:00Z,27.1690,-82.9260,1017.94,1111122 
COMPS,ioos:station:USF.COMPS:C10:1,2014-11-06T11:35:00Z,27.1690,-82.9260,1017.96,1111122 
COMPS,ioos:station:USF.COMPS:C10:1,2014-11-06T12:05:00Z,27.1690,-82.9260,1018.24,1111122 
COMPS,ioos:station:USF.COMPS:C10:1,2014-11-06T12:35:00Z,27.1690,-82.9260,1018.47,1111122 
COMPS,ioos:station:USF.COMPS:C10:1,2014-11-06T13:05:00Z,27.1690,-82.9260,1018.77,1111122 
COMPS,ioos:station:USF.COMPS:C10:1,2014-11-06T13:35:00Z,27.1690,-82.9260,1018.95,1111122 
COMPS,ioos:station:USF.COMPS:C10:1,2014-11-06T14:05:00Z,27.1690,-82.9260,1018.78,1111122 
COMPS,ioos:station:USF.COMPS:C10:1,2014-11-06T14:35:00Z,27.1690,-82.9260,1018.84,1111122 
COMPS,ioos:station:USF.COMPS:C10:1,2014-11-06T15:05:00Z,27.1690,-82.9260,1018.56,1111122 
COMPS,ioos:station:USF.COMPS:C10:1,2014-11-06T15:35:00Z,27.1690,-82.9260,1018.22,1111122 
COMPS,ioos:station:USF.COMPS:C10:1,2014-11-06T16:05:00Z,27.1690,-82.9260,1018.14,1111122 
COMPS,ioos:station:USF.COMPS:C10:1,2014-11-06T16:35:00Z,27.1690,-82.9260,1017.87,1111122 
COMPS,ioos:station:USF.COMPS:C10:1,2014-11-06T17:05:00Z,27.1690,-82.9260,1017.61,1111122 
COMPS,ioos:station:USF.COMPS:C10:1,2014-11-06T17:35:00Z,27.1690,-82.9260,1017.06,1111122 
COMPS,ioos:station:USF.COMPS:C10:1,2014-11-06T18:05:00Z,27.1690,-82.9260,1016.47,1111122 
COMPS,ioos:station:USF.COMPS:C10:1,2014-11-06T18:35:00Z,27.1690,-82.9260,1015.61,1111122 
COMPS,ioos:station:USF.COMPS:C10:1,2014-11-06T19:05:00Z,27.1690,-82.9260,1015.46,1111122 
COMPS,ioos:station:USF.COMPS:C10:1,2014-11-06T19:35:00Z,27.1690,-82.9260,1015.33,1111122 